TimeEDT,TemperatureF,Dew PointF,Humidity,Sea Level PressureIn,VisibilityMPH,Wind Direction,Wind SpeedMPH,Gust SpeedMPH,PrecipitationIn,Events,Conditions,WindDirDegrees,DateUTC
12:54 AM,73.0,68.0,84,30.12,10.0,SSW,3.5,-,N/A,,Clear,200,2013-08-22 04:54:00
1:54 AM,73.0,69.1,87,30.11,9.0,SW,4.6,-,0.01,Rain,Light Rain,220,2013-08-22 05:54:00
2:28 AM,73.4,69.8,88,30.10,2.0,SSW,5.8,-,0.03,Rain,Rain,210,2013-08-22 06:28:00
2:36 AM,73.4,69.8,88,30.09,4.0,Calm,Calm,-,0.04,Rain,Rain,0,2013-08-22 06:36:00
2:54 AM,73.0,70.0,90,30.09,8.0,West,3.5,-,0.04,Rain,Light Rain,270,2013-08-22 06:54:00
3:27 AM,73.4,69.8,88,30.09,6.0,WSW,4.6,-,0.02,Rain,Light Rain,240,2013-08-22 07:27:00
3:54 AM,73.0,70.0,90,30.08,10.0,Calm,Calm,-,0.02,,Partly Cloudy,0,2013-08-22 07:54:00
4:54 AM,71.1,69.1,93,30.07,8.0,South,4.6,-,N/A,,Partly Cloudy,190,2013-08-22 08:54:00
5:54 AM,71.1,69.1,93,30.07,7.0,SSW,4.6,-,0.01,Rain,Light Rain,200,2013-08-22 09:54:00
6:11 AM,71.6,69.8,94,30.08,1.8,WSW,3.5,-,0.10,Rain,Heavy Rain,250,2013-08-22 10:11:00
6:19 AM,71.6,69.8,94,30.08,0.8,Variable,3.5,-,0.27,Rain,Heavy Rain,0,2013-08-22 10:19:00
6:26 AM,71.6,69.8,94,30.06,0.8,SSE,8.1,-,0.45,Rain,Heavy Rain,150,2013-08-22 10:26:00
6:30 AM,73.4,68.0,83,30.07,1.2,South,10.4,-,0.45,Rain,Rain,170,2013-08-22 10:30:00
6:33 AM,71.6,69.8,94,30.07,3.0,South,8.1,-,0.45,Rain,Light Rain,170,2013-08-22 10:33:00
6:54 AM,72.0,70.0,93,30.07,10.0,South,10.4,-,0.47,,Overcast,170,2013-08-22 10:54:00
7:15 AM,71.6,69.8,94,30.08,2.5,SSE,6.9,-,0.05,Rain,Heavy Rain,150,2013-08-22 11:15:00
7:19 AM,71.6,69.8,94,30.08,1.5,SSE,6.9,-,0.10,Rain,Heavy Rain,160,2013-08-22 11:19:00
7:29 AM,71.6,69.8,94,30.09,4.0,South,5.8,-,0.12,Rain,Light Rain,180,2013-08-22 11:29:00
7:50 AM,71.6,69.8,94,30.08,10.0,SE,5.8,-,0.12,,Overcast,140,2013-08-22 11:50:00
7:54 AM,72.0,69.1,91,30.08,10.0,SE,5.8,-,0.12,,Overcast,130,2013-08-22 11:54:00
8:05 AM,71.6,69.8,94,30.08,10.0,Calm,Calm,-,N/A,,Mostly Cloudy,0,2013-08-22 12:05:00
8:54 AM,73.9,71.1,91,30.09,10.0,Calm,Calm,-,N/A,,Overcast,0,2013-08-22 12:54:00
9:06 AM,73.4,69.8,88,30.08,9.0,NNW,6.9,-,N/A,,Overcast,340,2013-08-22 13:06:00
9:15 AM,73.4,69.8,88,30.08,10.0,NNE,4.6,-,N/A,,Overcast,20,2013-08-22 13:15:00
9:26 AM,75.2,69.8,83,30.07,9.0,ESE,4.6,-,0.01,Rain,Light Rain,110,2013-08-22 13:26:00
9:33 AM,73.4,71.6,94,30.07,1.8,Calm,Calm,-,0.09,Rain,Heavy Rain,0,2013-08-22 13:33:00
9:38 AM,73.4,71.6,94,30.08,0.8,Calm,Calm,-,0.14,Rain,Heavy Rain,0,2013-08-22 13:38:00
9:42 AM,73.4,71.6,94,30.07,1.0,East,4.6,-,0.15,Rain,Rain,80,2013-08-22 13:42:00
9:47 AM,73.4,71.6,94,30.07,2.0,NE,5.8,-,0.16,Rain,Rain,50,2013-08-22 13:47:00
9:54 AM,73.0,71.1,93,30.07,5.0,Calm,Calm,-,0.16,Rain,Light Rain,0,2013-08-22 13:54:00
10:15 AM,73.4,71.6,94,30.07,5.0,South,4.6,-,0.01,Rain,Light Rain,180,2013-08-22 14:15:00
10:35 AM,75.2,71.6,89,30.07,6.0,SSE,3.5,-,0.01,,Overcast,160,2013-08-22 14:35:00
10:47 AM,75.2,71.6,89,30.06,6.0,SSE,4.6,-,0.01,,Overcast,150,2013-08-22 14:47:00
10:54 AM,77.0,73.0,88,30.06,9.0,SSE,5.8,-,0.01,,Overcast,160,2013-08-22 14:54:00
11:09 AM,78.8,73.4,83,30.06,10.0,SSW,6.9,-,N/A,,Overcast,200,2013-08-22 15:09:00
11:33 AM,78.8,73.4,83,30.05,8.0,South,6.9,-,N/A,,Mostly Cloudy,190,2013-08-22 15:33:00
11:47 AM,78.8,73.4,83,30.05,8.0,South,4.6,-,N/A,,Mostly Cloudy,180,2013-08-22 15:47:00
11:54 AM,80.1,73.9,81,30.04,8.0,South,5.8,-,N/A,,Mostly Cloudy,190,2013-08-22 15:54:00
12:04 PM,80.6,73.4,79,30.05,7.0,SW,5.8,-,N/A,,Mostly Cloudy,220,2013-08-22 16:04:00
12:26 PM,80.6,73.4,79,30.04,7.0,WSW,5.8,-,N/A,,Mostly Cloudy,250,2013-08-22 16:26:00
12:38 PM,82.4,73.4,74,30.04,10.0,WSW,5.8,-,N/A,,Scattered Clouds,240,2013-08-22 16:38:00
12:54 PM,84.9,73.0,67,30.03,10.0,WSW,5.8,-,N/A,,Mostly Cloudy,240,2013-08-22 16:54:00
1:54 PM,84.9,71.1,63,30.01,10.0,WSW,8.1,-,N/A,,Partly Cloudy,240,2013-08-22 17:54:00
2:54 PM,84.9,70.0,61,29.98,10.0,WSW,6.9,-,N/A,,Clear,250,2013-08-22 18:54:00
3:54 PM,86.0,70.0,59,29.96,10.0,SW,11.5,-,N/A,,Clear,230,2013-08-22 19:54:00
4:54 PM,86.0,68.0,55,29.95,10.0,Variable,5.8,-,N/A,,Clear,0,2013-08-22 20:54:00
5:54 PM,86.0,68.0,55,29.95,10.0,West,9.2,-,N/A,,Clear,270,2013-08-22 21:54:00
6:54 PM,84.0,69.1,61,29.94,10.0,West,3.5,-,N/A,,Clear,260,2013-08-22 22:54:00
7:54 PM,77.0,66.0,69,29.96,10.0,Calm,Calm,-,N/A,,Partly Cloudy,0,2013-08-22 23:54:00
8:54 PM,75.0,68.0,79,29.96,10.0,Calm,Calm,-,N/A,,Clear,0,2013-08-23 00:54:00
9:54 PM,73.9,68.0,82,29.96,10.0,SW,3.5,-,N/A,,Clear,220,2013-08-23 01:54:00
10:54 PM,73.0,69.1,87,29.96,10.0,SSW,3.5,-,N/A,,Clear,210,2013-08-23 02:54:00
11:54 PM,73.9,70.0,87,29.95,9.0,SW,3.5,-,N/A,,Clear,230,2013-08-23 03:54:00